Regional Weather Roundup
Issued by NWS Charleston, SC

Current Version | Previous Version | Graphics & Text | Print | Product List | Glossary On
Versions: 1 2 3 4 5 6 7 8 9 10 11 12 13 14 15 16 17 18 19 20 21 22 23 24 25 26 27 28 29 30 31 32 33 34 35 36 37 38 39 40 41 42 43 44 45 46 47 48 49 50
294
ASUS42 KCHS 020413
RWRCHS

REGIONAL WEATHER ROUNDUP
NATIONAL WEATHER SERVICE CHARLESTON SC
1200 AM EDT MON MAY 02 2016

NOTE: "FAIR" INDICATES FEW OR NO CLOUDS BELOW 12,000 FEET WITH NO
SIGNIFICANT WEATHER AND/OR OBSTRUCTIONS TO VISIBILITY.

NOT ALL STATIONS ARE QUALITY CONTROLLED. USE DATA WITH CAUTION...
ESPECIALLY DEWPOINT OBSERVATIONS.

SCZ027-030-031-034>040-042>050-020500-
...SOUTHEAST SOUTH CAROLINA...

CITY           SKY/WX    TMP DP  RH WIND       PRES   REMARKS
N CHARLESTON   CLOUDY    73  69  87 S8        30.03F
WATERFRONT PRK   N/A     74  72  93 S7        30.03F
MOUNT PLEASANT FAIR      73  72  94 S6        30.04F
JOHNS ISLAND   FAIR      73  72  94 S8        30.04F
PINOPOLIS        N/A     73  72  94 VRB2      29.96F
MONCKS CORNER  FAIR      68  64  88 S5        30.03F
SUMMERVILLE    FAIR      72  72 100 CALM      30.04F
BEAUFORT MCAS  CLOUDY    74  72  93 VRB5      30.04F
BEAUFORT ARPT  FAIR      73  70  88 S6        30.04F
HILTON HEAD IS PTCLDY    73  73 100 S5        30.06S
WALTERBORO     CLOUDY    73  73 100 S5        30.04F FOG
ALLENDALE      FAIR      68  66  94 S5        30.02F

...SOUTHERN MIDLANDS AND PEE DEE...

CITY           SKY/WX    TMP DP  RH WIND       PRES   REMARKS
GEORGETOWN     FAIR      70  68  94 S6        30.04F
KINGSTREE      FAIR      68  64  88 CALM      30.03F
ORANGEBURG     CLOUDY    68  66  93 S5        30.03F
BARNWELL       FAIR      70  70 100 S3        30.03F
AIKEN          FAIR      68  64  88 S6        30.05F
MANNING        NOT AVBL
COLUMBIA       MOCLDY    71  66  84 S3        30.02S
SUMTER         CLOUDY    68  66  93 SW6       30.01F
FLORENCE       MOCLDY    67  65  93 S3        30.04S
MYRTLE BEACH   CLOUDY    72  64  78 SW9       30.06R
N MYRTLE BEACH CLOUDY    71  67  87 S9        30.03F

$$

GAZ063-065-086>088-099>101-113>116-118-119-134>141-150-020500-
...SOUTHEAST GEORGIA...

CITY           SKY/WX    TMP DP  RH WIND       PRES   REMARKS
SAVANNAH ARPT  CLOUDY    73  68  84 S5        30.05F
HUNTER AAF     CLOUDY    74  74 100 SE3       30.03F
FORT STEWART   MOCLDY    69  66  89 CALM      30.02S
STATESBORO     MOCLDY    70  69  97 CALM      30.02F
SYLVANIA       PTCLDY    68  68 100 CALM      30.04F
CLAXTON        FAIR      67  67 100 CALM      30.03F

...CSRA...CENTRAL AND FAR SOUTHEAST GEORGIA...

CITY           SKY/WX    TMP DP  RH WIND       PRES   REMARKS
THOMSON        MOCLDY    74  68  80 CALM      30.07S
AUGUSTA-BUSH   PTCLDY    69  66  90 S6        30.01F
AUGUSTA-DANIEL PTCLDY    72  66  81 S7        30.02F
SWAINSBORO     FAIR      70  64  83 CALM      30.04F
VIDALIA        PTCLDY    68  64  88 SW6       30.04F
EASTMAN        FAIR      72  67  85 S3        30.06F
HAZLEHURST     FAIR      71  67  88 S5        30.04F
ALMA           PTCLDY    70  67  90 VRB3      30.05F
WAYCROSS       PTCLDY    70  67  92 CALM      30.06F
JESUP          CLOUDY    72  72 100 S3        30.05F
BAXLEY         FAIR      70  68  94 SE7       30.04F
BRUNSWICK      FOG       73  72  94 CALM      30.06F VSB 3/4
SAINT SIMONS   CLEAR     72  72 100 CALM      30.06F

$$

SCZ027-028-034-036>038-045-046-048>050-GAZ119-141-020500-
...LAKE AND SUPPLEMENTAL COASTAL OBSERVATIONS...

STATION/POSITION TIME  TEMP    WIND        PRES    WAVE   SWELL
                       AIR SEA DIR/SP/G            HT/PER HT/PER/DIR
                 (UTC) (F)     (DEG/KT/KT) (MB)    (FT/S) (FT/S/D)
WINYAH BAY       0245   71     180/  5     1017.0
LAKE MURRAY      0300   73     210/ 11/ 13 1015.9F
ACE BASIN NERRS  NOT AVBL
FORT PULASKI     0300   74 74              1018.3F
SAPELO ISLAND    0300   73        CALM     1018.0F

$$

ANZ835-935-AMZ111-154-330-350-352-354-370-450-454-472-020500-
...C-MAN AND BUOY OBSERVATIONS...

STATION/POSITION TIME  TEMP    WIND        PRES    WAVE   SWELL
                       AIR SEA DIR/SP/G            HT/PER HT/PER/DIR
                 (UTC) (F)     (DEG/KT/KT) (MB)    (FT/S) (FT/S/D)
BUOY 41004       0350   75 73  170/ 12/ 14 1017.2F   3/11   2/11
BUOY 41008       NOT AVBL
FOLLY BEACH CMAN 0300   74     180/ 11/ 12 1018.2S
CAPERS NEARSHORE 0308   73 72  180/ 10/ 14 1017.7F
FRIPP NEARSHORE  0308   74 74  170/  8/ 12 1017.3F


STATION/POSITION TIME  TEMP    WIND        PRES    WAVE   SWELL
                       AIR SEA DIR/SP/G            HT/PER HT/PER/DIR
                 (UTC) (F)     (DEG/KT/KT) (MB)    (FT/S) (FT/S/D)
5E ST. MARYS GA  0321      74                N/A     3/ 6   2/ 90/11
FRYING PAN BUOY  0300   74 71  180/ 10/ 12 1017.5F
BUOY 41025       0350   74 73  190/ 16/ 19 1017.6F   5/ 9   3/ 80/ 9
CAPE LOOKOUT NC  0300   69     190/  8/  9 1016.9F
BUOY 41002       0350   73 74  140/ 14/ 16 1020.3F   4/ 9   3/ 30/ 9
BUOY 41010       0320   77 77  120/ 12/ 14 1019.2S
ST AUGUSTINE FL  0400   73 73  160/  8/  9 1018.3F


$$




USA.gov is the U.S. government's official web portal to all federal, state and local government web resources and services.